This demonstration page uses our WeatherBlox Daily Observations layout. Learn more.

Left ArrowRight Arrow

Hourly Observations for April 9, 2022

Temp ( °F °C ) Dew Point ( °F °C ) Humidity (%) Winds ( mph kmh ) Pressure ( in mb ) Visibility ( mi km ) Precip ( " mm )
12:15 am 00:15 Clear 33 0.3 16 -8.8 51 51 Calm 30.09 1019 10 16 0.00 0.00
12:35 am 00:35 Clear 32 0.1 16 -9 51 51 Calm 30.08 1019 10 16 0.00 0.00
12:55 am 00:55 Clear 32 -0.2 15 -9.5 50 50 S 5 7 30.09 1019 10 16 0.00 0.00
1:15 am 01:15 Clear 31 -0.8 14 -10.1 50 50 S 3 6 30.08 1019 10 16 0.00 0.00
1:35 am 01:35 Clear 29 -1.5 13 -10.8 50 50 SSE 5 7 30.08 1019 10 16 0.00 0.00
1:55 am 01:55 Clear 28 -2.4 11 -11.5 50 50 S 5 7 30.09 1019 10 16 0.00 0.00
2:15 am 02:15 Clear 28 -2.5 11 -11.5 50 50 S 6 9 30.09 1019 10 16 0.00 0.00
2:35 am 02:35 Clear 29 -1.8 12 -10.9 50 50 S 7 11 30.07 1018 10 16 0.00 0.00
2:55 am 02:55 Clear 31 -0.6 14 -9.8 50 50 S 7 11 30.06 1018 10 16 0.00 0.00
3:15 am 03:15 Clear 30 -1.1 13 -10.5 49 49 S 8 13 30.07 1018 10 16 0.00 0.00
3:35 am 03:35 Clear 29 -1.5 13 -10.8 50 50 S 7 11 30.06 1018 10 16 0.00 0.00
3:55 am 03:55 Clear 29 -1.5 13 -10.7 50 50 S 8 13 30.05 1018 10 16 0.00 0.00
4:15 am 04:15 Clear 29 -1.4 13 -10.6 50 50 S 8 13 30.04 1017 10 16 0.00 0.00
4:35 am 04:35 Clear 29 -1.4 13 -10.6 50 50 S 8 13 30.04 1017 10 16 0.00 0.00
4:55 am 04:55 Clear 29 -1.9 12 -11.1 50 50 S 7 11 30.04 1017 10 16 0.00 0.00
5:15 am 05:15 Clear 27 -2.6 11 -11.8 50 50 S 6 9 30.03 1017 10 16 0.00 0.00
5:35 am 05:35 Clear 28 -2.5 11 -11.6 50 50 S 6 9 30.02 1017 10 16 0.00 0.00
5:55 am 05:55 Clear 26 -3.5 9 -12.6 50 50 S 7 11 30.02 1017 10 16 0.00 0.00
6:15 am 06:15 Clear 27 -3 10 -12.2 49 49 SSE 8 13 30.00 1016 10 16 0.00 0.00
6:35 am 06:35 Clear 29 -1.5 13 -10.7 50 50 SSE 12 19 29.98 1015 10 16 0.00 0.00
6:55 am 06:55 Clear 28 -2.3 11 -11.5 50 50 S 7 11 29.99 1015 10 16 0.00 0.00
7:15 am 07:15 Sunny 26 -3.2 10 -12.4 49 49 SSE 6 9 29.99 1015 10 16 0.00 0.00
7:35 am 07:35 Sunny 27 -2.6 11 -11.7 50 50 SSE 9 15 29.97 1015 10 16 0.00 0.00
7:55 am 07:55 Sunny 31 -0.7 14 -10 50 50 SSE 8 13 29.94 1014 10 16 0.00 0.00
8:15 am 08:15 Sunny 35 1.7 18 -7.6 50 50 SSE 10 17 29.90 1012 10 16 0.00 0.00
8:35 am 08:35 Sunny 40 4.3 23 -5.1 51 51 S 14 22 29.87 1012 10 16 0.00 0.00
8:55 am 08:55 Sunny 43 5.9 25 -3.8 50 50 S 18 30 29.85 1011 10 16 0.00 0.00
9:15 am 09:15 Sunny 44 6.8 27 -2.9 50 50 S 21 33 29.82 1010 10 16 0.00 0.00
9:35 am 09:35 Sunny 48 8.7 30 -1.1 51 51 S 22 35 29.78 1009 10 16 0.00 0.00
9:55 am 09:55 Sunny 50 10.1 32 0 50 50 S 23 37 29.76 1008 10 16 0.00 0.00
10:15 am 10:15 Sunny 52 11 34 0.9 50 50 S 26 43 29.75 1008 10 16 0.00 0.00
10:35 am 10:35 Sunny 54 12.4 36 2.1 50 50 S 26 43 29.72 1006 10 16 0.00 0.00
10:55 am 10:55 Sunny 56 13.3 37 3 50 50 S 26 43 29.70 1006 10 16 0.00 0.00
11:15 am 11:15 Sunny 57 14 38 3.6 50 50 S 30 48 29.68 1005 10 16 0.00 0.00
11:35 am 11:35 Sunny 59 15.1 40 4.7 50 50 S 29 46 29.67 1005 10 16 0.00 0.00
11:55 am 11:55 Sunny 60 15.3 41 5 50 50 S 25 41 29.66 1004 10 16 0.00 0.00
12:15 pm 12:15 Sunny 61 16 42 5.6 50 50 S 25 41 29.64 1004 10 16 0.00 0.00
12:35 pm 12:35 Sunny 63 17 44 6.5 50 50 S 22 35 29.63 1003 10 16 0.00 0.00
12:55 pm 12:55 Sunny 64 17.7 45 7.2 50 50 S 24 39 29.62 1003 10 16 0.00 0.00
1:15 pm 13:15 Sunny 65 18.6 47 8.1 51 51 S 21 33 29.59 1002 10 16 0.00 0.00
1:35 pm 13:35 Sunny 67 19.4 48 8.9 51 51 SSW 24 39 29.57 1001 10 16 0.00 0.00
1:55 pm 13:55 Sunny 68 19.8 49 9.3 51 51 S 24 39 29.56 1001 10 16 0.00 0.00
2:15 pm 14:15 Sunny 69 20.4 50 9.8 51 51 S 18 30 29.54 1001 10 16 0.00 0.00
2:35 pm 14:35 Sunny 70 21 51 10.5 51 51 S 21 33 29.54 1000 10 16 0.00 0.00
2:55 pm 14:55 Sunny 72 22 53 11.4 51 51 S 21 33 29.52 1000 10 16 0.00 0.00
3:15 pm 15:15 Sunny 72 22.2 53 11.6 51 51 S 18 30 29.50 999 10 16 0.00 0.00
3:35 pm 15:35 Sunny 73 22.6 54 12.1 52 52 S 20 31 29.50 999 10 16 0.00 0.00
3:55 pm 15:55 Sunny 73 23 55 12.5 52 52 S 18 30 29.47 998 10 16 0.00 0.00
4:15 pm 16:15 Sunny 73 22.9 54 12.4 52 52 S 21 33 29.47 998 10 16 0.00 0.00
4:35 pm 16:35 Sunny 75 23.8 56 13.1 51 51 S 20 31 29.45 997 10 16 0.00 0.00
4:55 pm 16:55 Sunny 75 23.7 56 13.2 52 52 S 16 26 29.45 997 10 16 0.00 0.00
5:15 pm 17:15 Sunny 75 24 56 13.4 52 52 S 18 30 29.45 997 10 16 0.00 0.00
5:35 pm 17:35 Sunny 75 24 56 13.4 52 52 S 17 28 29.44 997 10 16 0.00 0.00
5:55 pm 17:55 Sunny 76 24.5 57 13.8 51 51 S 15 24 29.43 997 10 16 0.00 0.00
6:15 pm 18:15 Sunny 76 24.3 57 13.7 52 52 S 16 26 29.42 996 10 16 0.00 0.00
6:35 pm 18:35 Sunny 75 24.1 56 13.6 52 52 SSE 18 30 29.43 996 10 16 0.00 0.00
6:55 pm 18:55 Sunny 73 22.9 54 12.4 52 52 SSE 14 22 29.43 996 10 16 0.00 0.00
7:15 pm 19:15 Sunny 74 23.5 55 13 52 52 SSE 17 28 29.42 996 10 16 0.00 0.00
7:35 pm 19:35 Sunny 72 22.3 53 11.8 52 52 SSE 16 26 29.42 996 10 16 0.00 0.00
7:55 pm 19:55 Sunny 68 20.1 50 9.8 52 52 SSE 13 20 29.45 997 10 16 0.00 0.00
8:15 pm 20:15 Clear 65 18.4 47 8.2 52 52 SE 10 17 29.45 997 10 16 0.00 0.00
8:35 pm 20:35 Clear 61 16 43 6 52 52 SE 12 19 29.47 998 10 16 0.00 0.00
8:55 pm 20:55 Clear 60 15.5 42 5.5 52 52 SE 12 19 29.48 998 10 16 0.00 0.00
9:15 pm 21:15 Clear 60 15.4 42 5.4 52 52 SE 13 20 29.48 998 10 16 0.00 0.00
9:35 pm 21:35 Clear 58 14.4 40 4.4 51 51 ESE 12 19 29.48 998 10 16 0.00 0.00
9:55 pm 21:55 Clear 58 14.2 40 4.2 51 51 ESE 14 22 29.48 998 10 16 0.00 0.00
10:15 pm 22:15 Clear 56 13.2 38 3.4 52 52 ESE 14 22 29.49 998 10 16 0.00 0.00
10:35 pm 22:35 Clear 54 12.3 37 2.5 51 51 SE 13 20 29.48 998 10 16 0.00 0.00
10:55 pm 22:55 Clear 55 12.6 37 2.7 51 51 ESE 15 24 29.47 998 10 16 0.00 0.00
11:15 pm 23:15 Clear 55 12.5 37 2.6 51 51 ESE 15 24 29.46 998 10 16 0.00 0.00
11:35 pm 23:35 Clear 54 12 36 2 51 51 ESE 15 24 29.46 997 10 16 0.00 0.00
11:55 pm 23:55 Clear 53 11.4 35 1.5 51 51 SE 15 24 29.45 997 10 16 0.00 0.00

Powered by AerisWeather